Detroit Metro, MI

6:43 AM EDT on April 25, 2017 (GMT -0400)
Detroit Metro Wayne County

Weather History for KDTW - March, 2012

Change the Weather History Date:

Wednesday, March 21, 2012

  Actual Average Record
Temperature  
Mean Temperature 70 °F 39 °F  
Max Temperature 84 °F 48 °F 84 °F (2012)
Min Temperature 56 °F 30 °F -1 °F (1885)
Degree Days  
Heating Degree Days 0 26  
Month to date heating degree days 308 625  
Since 1 July heating degree days 4176 5178  
Cooling Degree Days 5 0  
Month to date cooling degree days 11 0  
Year to date cooling degree days 11 0  
Growing Degree Days 20 (Base 50)    
Moisture  
Dew Point 53 °F    
Average Humidity 59    
Maximum Humidity 80    
Minimum Humidity 37    
Precipitation  
Precipitation 0.00 in 0.08 in 1.03 in (1994)
Month to date precipitation 1.61 1.49  
Year to date precipitation 6.52 5.47  
Snow  
Snow 0.00 in 0.20 in 6.90 in (2008)
Month to date snowfall 0.2 5.4  
Since 1 July snowfall 26.0 39.3  
Snow Depth 0.00 in    
Sea Level Pressure  
Sea Level Pressure 30.15 in    
Wind  
Wind Speed 4 mph (ESE)    
Max Wind Speed 14 mph    
Max Gust Speed 18 mph    
Visibility 9 miles    
Events      
T = Trace of Precipitation, MM = Missing Value Source: NWS Daily Summary

Daily Weather History Graph

Daily Weather History Graph

Search for Another Location

Airport or City:

Trip Planner

Search our weather history database for the weather conditions in past years. The results will help you decide how hot, cold, wet, or windy it might be!

Date:

Astronomy

Mar. 21, 2012 Rise Set
Actual Time 7:34 AM EDT 7:47 PM EDT
Civil Twilight 7:06 AM EDT 8:15 PM EDT
Nautical Twilight 6:33 AM EDT 8:48 PM EDT
Astronomical Twilight 5:59 AM EDT 9:21 PM EDT
Moon 6:44 AM EDT (3/21) 7:13 PM EDT (3/21)
Length of Visible Light 13h 09m
Length of Day
12h 13m
Waning Crescent, 1% of the Moon is Illuminated
Mar 21
Waning Crescent
Mar 22
New
Mar 30
First Quarter
Apr 6
Full
Apr 13
Last Quarter

Hourly Weather History & Observations

Time (EDT) Temp. Heat Index Dew Point Humidity Pressure Visibility Wind Dir Wind Speed Gust Speed Precip Events Conditions
12:53 AM 60.1 °F - 53.1 °F 78% 30.17 in 9.0 mi SSW 3.5 mph - N/A   Mostly Cloudy
1:53 AM 60.1 °F - 52.0 °F 75% 30.17 in 10.0 mi Calm Calm - N/A   Overcast
2:53 AM 60.1 °F - 52.0 °F 75% 30.17 in 7.0 mi Calm Calm - N/A   Overcast
3:53 AM 57.9 °F - 51.1 °F 78% 30.15 in 7.0 mi Calm Calm - N/A   Overcast
4:53 AM 59.0 °F - 51.1 °F 75% 30.15 in 7.0 mi Calm Calm - N/A   Overcast
5:53 AM 57.0 °F - 51.1 °F 81% 30.16 in 7.0 mi NNW 3.5 mph - N/A   Overcast
6:53 AM 57.0 °F - 51.1 °F 81% 30.18 in 6.0 mi NNW 3.5 mph - N/A   Haze
7:53 AM 57.9 °F - 51.1 °F 78% 30.19 in 5.0 mi NE 3.5 mph - N/A   Haze
8:53 AM 61.0 °F - 53.1 °F 75% 30.20 in 5.0 mi Calm Calm - N/A   Haze
9:53 AM 66.9 °F - 55.0 °F 66% 30.20 in 7.0 mi Calm Calm - N/A   Mostly Cloudy
10:53 AM 72.0 °F - 55.9 °F 57% 30.20 in 9.0 mi ESE 4.6 mph - N/A   Partly Cloudy
11:53 AM 75.9 °F - 55.9 °F 50% 30.19 in 10.0 mi Variable 3.5 mph - N/A   Partly Cloudy
12:53 PM 79.0 °F - 57.0 °F 47% 30.17 in 10.0 mi SSE 3.5 mph - N/A   Clear
1:53 PM 82.9 °F 82.0 °F 55.0 °F 38% 30.16 in 10.0 mi SSE 11.5 mph - N/A   Clear
2:53 PM 82.9 °F 81.9 °F 54.0 °F 37% 30.13 in 10.0 mi SSE 5.8 mph - N/A   Clear
3:53 PM 82.0 °F 81.2 °F 53.1 °F 37% 30.11 in 10.0 mi ESE 10.4 mph - N/A   Clear
4:53 PM 81.0 °F 80.4 °F 53.1 °F 38% 30.10 in 10.0 mi ESE 10.4 mph - N/A   Clear
5:53 PM 81.0 °F 80.4 °F 53.1 °F 38% 30.10 in 10.0 mi ESE 11.5 mph - N/A   Partly Cloudy
6:53 PM 79.0 °F - 53.1 °F 40% 30.11 in 10.0 mi ESE 9.2 mph - N/A   Partly Cloudy
7:53 PM 75.9 °F - 53.1 °F 45% 30.12 in 10.0 mi ESE 5.8 mph - N/A   Partly Cloudy
8:53 PM 72.0 °F - 54.0 °F 53% 30.13 in 10.0 mi East 3.5 mph - N/A   Clear
9:53 PM 68.0 °F - 53.1 °F 59% 30.15 in 10.0 mi ESE 4.6 mph - N/A   Clear
10:53 PM 64.9 °F - 53.1 °F 65% 30.15 in 10.0 mi ESE 3.5 mph - N/A   Clear
11:53 PM 62.1 °F - 52.0 °F 70% 30.14 in 10.0 mi ESE 3.5 mph - N/A   Clear